This is the latest recevied weather packets stored in our database for station/object K7FED. If no packets are shown the sender has not sent any weather packets the latest 10 day(s).
| Time | Temp. | Humidity | Pressure | Rain* | Wind** | Luminosity | Snow |
|---|---|---|---|---|---|---|---|
| 1778114424 | 24.44° C | 51% | 1015.1 hPa | 0 mm | - | 306 W/m² | - |
| 1778114124 | 24.44° C | 51% | 1015 hPa | 0 mm | - | 351 W/m² | - |
| 1778113823 | 24.44° C | 52% | 1015.1 hPa | 0 mm | - | 370 W/m² | - |
| 1778113523 | 24.44° C | 51% | 1015.1 hPa | 0 mm | - | 383 W/m² | - |
| 1778113223 | 24.44° C | 51% | 1015.1 hPa | 0 mm | - | 396 W/m² | - |
| 1778112923 | 24.44° C | 51% | 1015.1 hPa | 0 mm | - | 338 W/m² | - |
| 1778112624 | 24.44° C | 52% | 1015.2 hPa | 0 mm | - | 428 W/m² | - |
| 1778112323 | 24.44° C | 51% | 1015.1 hPa | 0 mm | - | 456 W/m² | - |
| 1778112023 | 24.44° C | 52% | 1015.2 hPa | 0 mm | - | 473 W/m² | - |
| 1778111723 | 24.44° C | 52% | 1015.2 hPa | 0 mm | - | 484 W/m² | - |
| 1778111423 | 24.44° C | 52% | 1015.2 hPa | 0 mm | - | 66 W/m² | - |
| 1778111124 | 24.44° C | 51% | 1015.3 hPa | 0 mm | - | 65 W/m² | - |
| 1778110823 | 24.44° C | 52% | 1015.2 hPa | 0 mm | - | 65 W/m² | - |
| 1778110524 | 24.44° C | 52% | 1015.3 hPa | 0 mm | - | 67 W/m² | - |
| 1778110220 | 24.44° C | 52% | 1015.4 hPa | 0 mm | - | 68 W/m² | - |
| 1778109921 | 24.44° C | 52% | 1015.4 hPa | 0 mm | - | 359 W/m² | - |
| 1778109621 | 24.44° C | 51% | 1015.4 hPa | 0 mm | - | 592 W/m² | - |
| 1778109320 | 23.89° C | 52% | 1015.5 hPa | 0 mm | - | 620 W/m² | - |
| 1778108718 | 24.44° C | 50% | 1015.6 hPa | 0 mm | - | 651 W/m² | - |
| 1778108419 | 23.89° C | 50% | 1015.6 hPa | 0 mm | - | 634 W/m² | - |
| 1778108118 | 23.89° C | 50% | 1015.7 hPa | 0 mm | - | 680 W/m² | - |
| 1778107819 | 23.89° C | 51% | 1015.7 hPa | 0 mm | - | 692 W/m² | - |
| 1778107518 | 23.89° C | 51% | 1015.9 hPa | 0 mm | - | 707 W/m² | - |
| 1778107219 | 23.89° C | 51% | 1015.9 hPa | 0 mm | - | 723 W/m² | - |
| 1778106919 | 23.89° C | 50% | 1015.9 hPa | 0 mm | - | 737 W/m² | - |
* Rain latest hour (hover to see other rain measurements)
** Current wind speed in m/s (hover to see current wind gust speed)